Location: Newark
(25.6108°S, 54.5803°W)
Time: 13:09:17
(UTC+00:00)

Courier 1B Rocket - Pass Details

Date: 29 October 2020
Orbit: 920 x 1202 km, 28.2° (Epoch: 01 December)

Event Time Altitude Azimuth Distance (km) Brightness Sun altitude
Rises 10:23:28 0° 277° (W) 3,926 7.5 19.5°
Reaches altitude 10° 10:26:20 10° 276° (W) 2,927 7.0 20.2°
Maximum altitude 10:33:29 79° 190° (S) 1,050 5.6 21.8°
Drops below altitude 10° 10:40:09 10° 102° (ESE) 2,727 9.3 23.3°
Sets 10:42:43 0° 101° (E) 3,642 9.4 23.9°
